Starlink 31086

operational
NORAD ID: 58626 Int'l Des: 2023-203 Owner: SPXS Country: US Constellation: starlink
LEOCIRCULAR

关于 Starlink 31086

正在加载描述...

实时位置

正在加载3D地球...

即将过境

高度历史

Altitude vs Time

uPlot chart will show altitude changes over time

两行轨道根数

1 58626U 23203J 25303.75266544 .00002311 00000-0 93486-4 0 9990
2 58626 43.0016 80.5287 0001176 270.8138 89.2579 15.27576413103697
Epoch: Oct 30, 2025 • Age: 11 hours

当前状态

高度 490.5 km
速度 7.62 km/s
星下点 -30.18°S, 72.72°W
发射日期 Dec 23, 2023
运行时间 1.8 years
类型 internet

技术详情

分类 Payload
质量 730.00 kg
干质量 700.00 kg
总质量 730.00 kg
长度 0.30 m
直径 4.10 m
跨度 29.00 m
形状 Box + pan
制造商 SPXS
平台类型 Starlink V2M
阶段状态 In Orbit
所有者/国家 SPXS/US

大型星座

Loading constellations...